Location: Kawakawa
(35.3830°S, 174.0670°E)
Time: 01:15:26
(UTC+12:00)

CZ-4B R/B - Pass Details

Date: 15 August 2020
Orbit: 809 x 881 km, 99.1° (Epoch: 19 September)

Event Time Altitude Azimuth Distance (km) Brightness Sun altitude
Rises 18:05:25 0° 161° (SSE) 3,415 6.0 -3.5°
Reaches altitude 10° 18:07:54 10° 155° (SSE) 2,464 5.3 -4.0°
Maximum altitude 18:13:11 51° 80° (E) 1,037 3.4 -5.0°
Drops below altitude 10° 18:18:20 10° 4° (N) 2,401 5.7 -6.0°
Sets 18:20:43 0° 359° (N) 3,320 6.5 -6.5°
